Hourly Data Report for July 01, 2022

MIRAMICHI RCS
NEW BRUNSWICK
Current Station Operator: ECCC - MSC

47°00'34.000" N
65°27'54.000" W
33.00 m
8100989
71744
ACQ

Download Data

Hourly Data (July 2022)
Hourly Data Report for July 1, 2022
TIME
LST
Temp Definition
°C
Dew Point Definition
°C
Rel Hum Definition
%
Precip. Amount Definition
mm

Wind Dir Definition
10's deg

Wind Spd Definition
km/h
Visibility Definition
km
Stn Press Definition
kPa
Hmdx Definition


Wind Chill Definition


Weather Definition


00:00 13.3 12.2 93 0.0 26 3   101.26     LegendNANA
01:00 13.5 12.5 94 0.0 27 4   101.26     LegendNANA
02:00 12.7 11.6 93 0.0 0 1   101.23     LegendNANA
03:00 11.8 11.1 95 0.0 23 3   101.21     LegendNANA
04:00 12.3 12.1 99 0.0 23 7   101.17     LegendNANA
05:00 12.0 11.6 98 0.0 24 5   101.18     LegendNANA
06:00 13.0 11.7 92 0.0 25 5   101.20     LegendNANA
07:00 15.0 11.4 79 0.0 23 6   101.17     LegendNANA
08:00 17.0 11.4 70 0.0 23 7   101.18     LegendNANA
09:00 17.5 11.8 69 0.0 24 13   101.17     LegendNANA
10:00 18.0 11.4 65 0.0 21 6   101.08     LegendNANA
11:00 19.3 13.0 67 0.0 20 15   101.02     LegendNANA
12:00 22.6 12.2 52 0.0 20 21   100.91 25   LegendNANA
13:00 24.6 12.9 48 0.0 22 23   100.81 27   LegendNANA
14:00 25.5 13.1 46 0.0 20 23   100.72 28   LegendNANA
15:00 26.9 14.2 46 0.0 23 24   100.64 30   LegendNANA
16:00 27.8 14.9 45 0.0 22 23   100.57 32   LegendNANA
17:00 26.8 15.0 48 0.0 21 18   100.49 31   LegendNANA
18:00 25.4 15.0 53 0.0 18 17   100.44 29   LegendNANA
19:00 24.7 14.9 55 0.0 18 18   100.42 29   LegendNANA
20:00 23.6 14.8 58 0.0 20 14   100.44 27   LegendNANA
21:00 20.6 17.3 81 1.0 26 16   100.62 26   LegendNANA
22:00 18.8 17.5 92 2.3 18 18   100.50     LegendNANA
23:00 18.7 17.4 92 0.3 23 13   100.49     LegendNANA

Notes on Data Quality.

Legend

  • E = Estimated
  • M = Missing
  • NA = Not Available*
  • [empty] = Indicates an unobserved value
Date modified: